Regional Weather Roundup
Issued by NWS

Home | Current Version | Previous Version | Text Only | Print | Product List | Glossary On
Versions: 1 2 3 4 5 6 7 8 9 10 11 12 13 14 15 16 17 18 19 20 21 22 23 24 25 26 27 28 29 30 31 32 33 34 35 36 37 38 39 40 41 42 43 44 45 46 47 48 49 50
000
ASUS43 KLMK 300302
RWRKY
KENTUCKY REGIONAL WEATHER ROUNDUP
NATIONAL WEATHER SERVICE LOUISVILLE KY
1000 PM EST THU JAN 29 2015

NOTE "FAIR" INDICATES FEW OR NO CLOUDS BELOW 12,000 FEET
WITH NO SIGNIFICANT WEATHER AND/OR OBSTRUCTIONS TO VISIBILITY.

KYZ001>023-026-027-061>063-070>075-300400-
WESTERN AND SOUTH CENTRAL KENTUCKY

CITY           SKY/WX    TMP DP  RH WIND       PRES   REMARKS
PADUCAH        CLOUDY    41  31  67 NW6       30.35R
HENDERSON      CLOUDY    37  30  75 NW15G21   30.33R WCI  28
OWENSBORO      CLOUDY    38  35  89 NW10      30.31R WCI  31
HOPKINSVILLE   CLOUDY    40  33  75 NW7       30.32R
BOWLING GREEN  CLOUDY    39  31  72 NW10      30.30R WCI  32
GLASGOW        NOT AVBL
$$

KYZ024-025-028>034-038-045-046-053-300400-
NORTH CENTRAL KENTUCKY

CITY           SKY/WX    TMP DP  RH WIND       PRES   REMARKS
LOUISVILLE/SDF CLOUDY    37  29  72 NW10      30.25R WCI  30
LOUISVILLE/LOU CLOUDY    37  29  72 NW13G22   30.25R WCI  29
FORT KNOX      CLOUDY    36  30  79 NW10      30.24R WCI  28
$$

KYZ035>037-039>044-047>052-055>060-089>105-300400-
NORTHEAST KENTUCKY

CITY           SKY/WX    TMP DP  RH WIND       PRES   REMARKS
LEXINGTON      CLOUDY    34  29  82 NW12G23   30.19R WCI  25
COVINGTON      CLOUDY    34  29  82 NW15G21   30.16R WCI  24
FRANKFORT      CLOUDY    35  29  78 NW6       30.20R WCI  30
$$

KYZ054-064>069-076>088-106>120-300400-
SOUTHEAST KENTUCKY

CITY           SKY/WX    TMP DP  RH WIND       PRES   REMARKS
JACKSON        CLOUDY    37  29  72 NW9       30.13R WCI  30
LONDON         CLOUDY    39  28  64 NW12G21   30.17R WCI  32
SOMERSET       NOT AVBL
MIDDLESBORO    NOT AVBL
MONTICELLO     CLOUDY    38  33  82 W17       30.25R WCI  28
$$



USA.gov is the U.S. government's official web portal to all federal, state and local government web resources and services.